Weather History for KEFK - November, 2012

Change the Weather History Date:

Monday, November 26, 2012

  Actual Average Record
Temperature  
Mean Temperature 20 °F -  
Max Temperature 28 °F 35 °F 62 °F (1979)
Min Temperature 12 °F 22 °F -7 °F (1938)
Degree Days  
Heating Degree Days 45    
Moisture  
Dew Point 14 °F    
Average Humidity 65    
Maximum Humidity 82    
Minimum Humidity 45    
Precipitation  
Precipitation 0.00 in - - ()
Sea Level Pressure  
Sea Level Pressure 29.98 in    
Wind  
Wind Speed 4 mph (WSW)    
Max Wind Speed 12 mph    
Max Gust Speed -    
Visibility 8 miles    
Events Snow    
Averages and records for this station are not official NWS values.
T = Trace of Precipitation, MM = Missing Value Source: NWS Daily Summary

Daily Weather History Graph

Daily Weather History Graph

Search for Another Location

Airport or City:

Trip Planner

Search our weather history database for the weather conditions in past years. The results will help you decide how hot, cold, wet, or windy it might be!

Date:

Astronomy

Nov. 26, 2012 Rise Set
Actual Time 7:01 AM EST 4:11 PM EST
Civil Twilight 6:28 AM EST 4:44 PM EST
Nautical Twilight 5:52 AM EST 5:20 PM EST
Astronomical Twilight 5:17 AM EST 5:55 PM EST
Moon 3:04 PM EST (11/26) 5:05 AM EST (11/26)
Length of Visible Light 10h 15m
Length of Day
9h 10m
Waxing Gibbous, 97% of the Moon is Illuminated
Nov 26
Waxing Gibbous
Nov 28
Full
Dec 6
Last Quarter
Dec 13
New
Dec 20
First Quarter

Hourly Weather History & Observations

Time (EST) Temp. Windchill Dew Point Humidity Pressure Visibility Wind Dir Wind Speed Gust Speed Precip Events Conditions
12:15 AM 26.1 °F 20.5 °F 13.3 °F 59% 29.76 in 10.0 mi West 4.6 mph - N/A   Overcast
12:35 AM 26.4 °F 19.8 °F 14.0 °F 59% 29.76 in 10.0 mi WSW 5.8 mph - N/A   Overcast
12:55 AM 26.2 °F 20.7 °F 14.5 °F 61% 29.76 in 10.0 mi WSW 4.6 mph - N/A Snow Light Snow
1:15 AM 26.4 °F 18.9 °F 14.7 °F 61% 29.77 in 10.0 mi WSW 6.9 mph - N/A   Overcast
1:35 AM 26.6 °F 21.2 °F 14.5 °F 60% 29.77 in 10.0 mi SW 4.6 mph - N/A   Overcast
1:55 AM 27.0 °F 21.6 °F 15.3 °F 61% 29.78 in 10.0 mi SSW 4.6 mph - N/A   Overcast
2:15 AM 27.1 °F 21.8 °F 15.6 °F 62% 29.79 in 10.0 mi SW 4.6 mph - N/A   Overcast
2:35 AM 26.2 °F 19.6 °F 14.9 °F 62% 29.79 in 10.0 mi SW 5.8 mph - N/A   Mostly Cloudy
2:55 AM 26.2 °F 22.1 °F 14.7 °F 62% 29.79 in 10.0 mi West 3.5 mph - N/A   Scattered Clouds
3:15 AM 26.2 °F 20.7 °F 14.9 °F 62% 29.79 in 10.0 mi WSW 4.6 mph - N/A   Mostly Cloudy
3:35 AM 26.6 °F 20.0 °F 15.4 °F 63% 29.79 in 10.0 mi WSW 5.8 mph - N/A   Mostly Cloudy
3:55 AM 27.0 °F - 16.2 °F 64% 29.79 in 10.0 mi Calm Calm - N/A   Overcast
4:15 AM 27.5 °F - 17.2 °F 65% 29.80 in 10.0 mi Calm Calm - N/A   Overcast
4:35 AM 27.5 °F - 17.4 °F 66% 29.80 in 10.0 mi Calm Calm - N/A   Overcast
4:55 AM 27.5 °F - 18.1 °F 68% 29.80 in 7.0 mi Calm Calm - N/A Snow Light Snow
5:15 AM 27.0 °F 23.0 °F 18.3 °F 70% 29.81 in 7.0 mi NE 3.5 mph - N/A Snow Light Snow
5:35 AM 26.6 °F - 19.4 °F 74% 29.81 in 3.0 mi Calm Calm - N/A Snow Light Snow
5:55 AM 26.6 °F - 20.1 °F 77% 29.81 in 2.5 mi Calm Calm - N/A Snow Light Snow
6:15 AM 26.6 °F - 20.8 °F 79% 29.82 in 2.0 mi Calm Calm - N/A Snow Light Snow
6:35 AM 26.6 °F - 21.0 °F 79% 29.83 in 2.0 mi Calm Calm - N/A Snow Light Snow
6:55 AM 26.4 °F - 21.0 °F 80% 29.84 in 1.8 mi Calm Calm - N/A Snow Light Snow
7:15 AM 26.2 °F - 20.8 °F 80% 29.84 in 1.8 mi Calm Calm - N/A Snow Light Snow
7:35 AM 25.5 °F - 20.3 °F 81% 29.85 in 1.5 mi Calm Calm - N/A Snow Light Snow
7:55 AM 24.6 °F - 19.6 °F 81% 29.86 in 1.5 mi Calm Calm - N/A Snow Light Snow
8:15 AM 25.9 °F - 21.0 °F 82% 29.87 in 2.0 mi Calm Calm - N/A Snow Light Snow
8:35 AM 26.4 °F - 20.8 °F 79% 29.88 in 2.0 mi Calm Calm - N/A Snow Light Snow
8:55 AM 26.4 °F 22.4 °F 20.1 °F 77% 29.89 in 2.0 mi WNW 3.5 mph - N/A Snow Light Snow
9:15 AM 26.6 °F 20.0 °F 20.3 °F 77% 29.91 in 3.0 mi NW 5.8 mph - N/A Snow Light Snow
9:35 AM 27.1 °F - 20.3 °F 75% 29.92 in 3.0 mi Calm Calm - N/A Snow Light Snow
9:55 AM 27.3 °F 22.0 °F 19.9 °F 74% 29.93 in 5.0 mi NW 4.6 mph - N/A Snow Light Snow
10:15 AM 28.4 °F - 19.8 °F 70% 29.94 in 5.0 mi Calm Calm - N/A Snow Light Snow
10:35 AM 28.8 °F 21.7 °F 19.8 °F 69% 29.95 in 7.0 mi NW 6.9 mph - N/A Snow Light Snow
10:55 AM 28.2 °F 21.0 °F 20.1 °F 72% 29.96 in 3.0 mi WNW 6.9 mph - N/A   Haze
11:15 AM 28.0 °F 22.8 °F 21.2 °F 76% 29.97 in 3.0 mi WSW 4.6 mph - N/A   Haze
11:35 AM 27.9 °F 19.8 °F 18.1 °F 67% 29.97 in 10.0 mi West 8.1 mph - N/A   Mostly Cloudy
11:55 AM 27.9 °F 21.5 °F 16.5 °F 62% 29.98 in 10.0 mi WSW 5.8 mph - N/A   Mostly Cloudy
12:15 PM 28.0 °F 24.2 °F 15.1 °F 58% 29.99 in 10.0 mi West 3.5 mph - N/A   Overcast
12:35 PM 28.2 °F 21.0 °F 12.9 °F 53% 30.00 in 10.0 mi WSW 6.9 mph - N/A   Mostly Cloudy
12:55 PM 28.4 °F 20.4 °F 12.7 °F 52% 30.01 in 10.0 mi SW 8.1 mph - N/A   Scattered Clouds
1:15 PM 28.0 °F 22.8 °F 11.5 °F 50% 30.01 in 10.0 mi WSW 4.6 mph - N/A   Clear
1:35 PM 28.6 °F 21.5 °F 12.0 °F 50% 30.01 in 10.0 mi West 6.9 mph - N/A   Clear
1:55 PM 28.8 °F 21.7 °F 10.6 °F 47% 30.02 in 10.0 mi West 6.9 mph - N/A   Clear
2:15 PM 28.8 °F 21.7 °F 9.9 °F 45% 30.02 in 10.0 mi West 6.9 mph - N/A   Clear
2:35 PM 28.9 °F 20.4 °F 10.0 °F 45% 30.03 in 10.0 mi WSW 9.2 mph - N/A   Clear
2:55 PM 28.8 °F 19.0 °F 9.9 °F 45% 30.04 in 10.0 mi WSW 11.5 mph - N/A   Clear
3:15 PM 28.6 °F 19.9 °F 10.4 °F 47% 30.05 in 10.0 mi WSW 9.2 mph - N/A   Clear
3:35 PM 28.2 °F 20.2 °F 9.7 °F 46% 30.07 in 10.0 mi WSW 8.1 mph - N/A   Clear
3:55 PM 27.5 °F 20.2 °F 9.5 °F 47% 30.08 in 10.0 mi West 6.9 mph - N/A   Clear
4:15 PM 27.1 °F 20.7 °F 9.7 °F 48% 30.09 in 10.0 mi SW 5.8 mph - N/A   Clear
4:35 PM 26.4 °F 19.8 °F 9.5 °F 49% 30.09 in 10.0 mi West 5.8 mph - N/A   Clear
4:55 PM 25.0 °F 18.1 °F 10.0 °F 53% 30.10 in 10.0 mi WSW 5.8 mph - N/A   Clear
5:15 PM 24.3 °F 17.3 °F 9.3 °F 53% 30.11 in 10.0 mi WSW 5.8 mph - N/A   Clear
5:55 PM 24.4 °F 20.1 °F 10.4 °F 55% 30.12 in 10.0 mi West 3.5 mph - N/A   Clear
6:15 PM 24.1 °F 18.2 °F 10.4 °F 56% 30.13 in 10.0 mi WSW 4.6 mph - N/A   Clear
6:35 PM 23.4 °F 18.9 °F 10.8 °F 59% 30.14 in 10.0 mi WSW 3.5 mph - N/A   Clear
6:55 PM 19.8 °F 14.7 °F 9.9 °F 65% 30.15 in 10.0 mi West 3.5 mph - N/A   Clear
7:15 PM 21.2 °F 14.9 °F 10.9 °F 65% 30.15 in 10.0 mi West 4.6 mph - N/A   Clear
7:35 PM 22.8 °F 15.5 °F 10.4 °F 59% 30.16 in 10.0 mi West 5.8 mph - N/A   Clear
7:55 PM 22.5 °F 15.1 °F 9.5 °F 58% 30.16 in 10.0 mi West 5.8 mph - N/A   Clear
8:15 PM 22.1 °F - 10.2 °F 60% 30.16 in 10.0 mi Calm Calm - N/A   Clear
8:35 PM 17.6 °F 10.7 °F 9.9 °F 72% 30.17 in 10.0 mi SSE 4.6 mph - N/A   Clear
8:55 PM 16.9 °F - 9.1 °F 72% 30.17 in 10.0 mi Calm Calm - N/A   Clear
9:15 PM 18.1 °F 12.9 °F 9.0 °F 67% 30.18 in 10.0 mi SSE 3.5 mph - N/A   Clear
9:35 PM 16.7 °F - 8.6 °F 70% 30.17 in 10.0 mi Calm Calm - N/A   Clear
9:55 PM 19.0 °F - 11.1 °F 71% 30.17 in 10.0 mi Calm Calm - N/A   Clear
10:15 PM 17.6 °F - 10.0 °F 72% 30.17 in 10.0 mi Calm Calm - N/A   Clear
10:35 PM 12.7 °F - 6.4 °F 76% 30.18 in 10.0 mi Calm Calm - N/A   Clear
10:55 PM 15.3 °F - 9.3 °F 77% 30.19 in 10.0 mi Calm Calm - N/A   Clear
11:15 PM 15.1 °F - 8.8 °F 76% 30.19 in 10.0 mi Calm Calm - N/A   Scattered Clouds
11:35 PM 16.2 °F 10.6 °F 9.7 °F 76% 30.20 in 10.0 mi SW 3.5 mph - N/A   Scattered Clouds
11:55 PM 13.6 °F 4.6 °F 7.5 °F 77% 30.20 in 10.0 mi SSW 5.8 mph - N/A   Clear